Overview Statistics Trail Chart Weather Telemetry Raw packets
 

This is the latest recevied weather packets stored in our database for station/object N7ZEF. If no packets are shown the sender has not sent any weather packets the latest 10 day(s).

<< 1 2 3 4 >>
Time Temp. Humidity Pressure Rain* Wind** Luminosity Snow
1778185458 17.78° C 24% 1015.7 hPa 0 mm - - -
1778184856 17.78° C 25% 1015.9 hPa 0 mm - - -
1778184255 18.33° C 25% 1016 hPa 0 mm - - -
1778183653 17.22° C 26% 1016.3 hPa 0 mm - - -
1778183052 17.78° C 26% 1016.3 hPa 0 mm - - -
1778182451 18.33° C 25% 1016.3 hPa 0 mm - - -
1778181849 17.78° C 26% 1016.4 hPa 0 mm - - -
1778181245 17.78° C 27% 1016.5 hPa 0 mm - - -
1778180644 17.78° C 29% 1016.8 hPa 0 mm - - -
1778180042 16.67° C 30% 1016.9 hPa 0 mm - - -
1778179441 17.22° C 30% 1017.3 hPa 0 mm - - -
1778178839 16.11° C 32% 1017.4 hPa 0 mm - - -
1778178238 16.11° C 33% 1017.5 hPa 0 mm - - -
1778177637 16.11° C 34% 1017.9 hPa 0 mm - - -
1778177035 15.56° C 35% 1018 hPa 0 mm - - -
1778176434 15.56° C 36% 1018.2 hPa 0 mm - - -
1778175833 15° C 37% 1018.3 hPa 0 mm - - -
1778175235 14.44° C 38% 1018.5 hPa 0 mm - - -
1778174634 13.89° C 38% 1018.8 hPa 0 mm - - -
1778174032 13.33° C 38% 1018.8 hPa 0 mm - - -
1778173431 13.33° C 38% 1018.8 hPa 0 mm - - -
1778172831 13.33° C 38% 1018.7 hPa 0 mm - - -
1778171627 11.67° C 41% 1018.9 hPa 0 mm - - -
1778171026 11.11° C 42% 1019 hPa 0 mm - - -
1778170425 9.44° C 45% 1019 hPa 0 mm - - -

* Rain latest hour (hover to see other rain measurements)
** Current wind speed in m/s (hover to see current wind gust speed)